CZ-3B DEB, 42472

Orbit data source: Space-Track

CZ-3B DEB, 42472 is space debris in HEO originally from a launch on Mon, 19 Dec 2011 UTC launched from the Xichang Space Center, China (XSC). Debris objects in space refer to the collection of defunct objects orbiting the Earth. Examples of debris include non-operational satellites, rocket bodies, and fragments generated from explosions, collisions, or faulty payload assembly.

Loading next visibility...
CZ-3B DEB details
Identifier
42472, 2011-077AM
Orbit
HEO
Last TLE update1 day ago
Origin
Flag of CNCASC (CN / PRC)
ManufacturerCALT
MissionSpacecraft
Bus & MotorUnknown
MassUnknown
Launch date (UTC)
2011-12-19 (13 years ago)
Launch vehicleUnknown
Launch site
Xichang Space Center, China (XSC)
Object type
Payload
Rocket body
Debris
Shape & HBRUnknown
Radar Cross SectionMedium (>0.1 m² and <1 m²)

Expand to show TLE details & history

TLE from 1 day ago
0 CZ-3B DEB
1 42472U 11077AM  24360.32922089 -.00000215  00000-0  00000-0 0  9994
2 42472  25.6844  59.1398 7173060  69.0545 349.9431  1.79299919 65367
Epoch: 2024-12-25T07:54Z
Definitive object data (Epoch: 2024-12-25T07:54:04.684Z)
Latitude-0.00011°
Longitude-153.6541°
Altitude4,645.261 km
Speed7.641 km/s
True Right ascension03h 56m 45s
True Declination0° 00' 00"
Sunlit
Object was in daylight at TLE epoch
Visualization TLE readout
Latitude12.35049°
Longitude-0.84497°
Altitude6,123.727 km
Speed7.06 km/s
Apparent Right ascension15h 37m 17s
Apparent Declination-8° 13' 32"
Sunlit
Object is in daylight
Visualization observer readout
Local Sidereal Time10:52:14
Azimuth108.509° ESE
Elevation8.747°
Doppler factor1
Orbital elements
Apogee altitude42,778.177 km
Perigee altitude1,713.72 km
Semi-major axis28,624.086 km
Eccentricity0.717306
Inclination25.6844°
RAAN59.1398°
Arg. of periapsis69.0545°
True anomaly290.24979°
Mean anomaly349.9431°
Eccentric anomaly328.42059°
Mean motion0.44817 °/min
BSTARUnknown
Orbital period803.26 mins
Loading maneuver chart data...
Loading historical data...
Loading historical data...
Loading historical data...
Loading historical data...
Loading historical data...
Loading historical data...
Loading historical data...

CZ-3B DEB Visibility forecast

Observer location: undefined°, undefined

Span
Click to sort rows by Start time (UTC) header in descending order
Start Az.
Max El. time (UTC)
Max El. Az.
Max El.
End time (UTC)
End Az.
141 mins2024-12-26 20:08:53.211Z150.431° SSE2024-12-26 21:26:53.211Z156.231° SSE10.983°2024-12-26 22:29:53.211Z155.922° SSE
|